CW2434 Weather Reports


Display with metric or nautical units.
time (UTC)temp
F
wind
direction
speed
MPH
gust
MPH
rain 1hr
in
rain 24hr
in
rain mn
in
humidity
%
barometer
mb
20260905051600 62 0 0.0 0.0 0.00 0.46 0.00 85 1011.8
20260905050059 63 0 0.0 0.0 0.00 0.46 0.00 85 1011.8
20260905044609 64 0 0.0 0.0 0.00 0.46 0.00 79 1011.8
20260905043104 63 0 0.0 0.0 0.00 0.46 0.00 82 1011.9
20260905041556 63 0 0.0 0.0 0.00 0.46 0.00 84 1011.8
20260905040109 64 0 0.0 0.0 0.00 0.46 0.00 84 1012.0
20260905034607 64 0 0.0 0.0 0.00 0.46 0.46 82 1011.9
20260905033055 65 0 0.0 0.0 0.00 0.46 0.46 82 1011.8
20260905031552 64 0 0.0 0.0 0.00 0.46 0.46 81 1011.6
20260905030100 66 0 0.0 0.0 0.00 0.46 0.46 80 1011.6
20260905024612 66 0 0.0 0.0 0.00 0.46 0.46 77 1011.7
20260905023104 66 0 0.0 0.0 0.00 0.46 0.46 77 1011.7
20260905021559 66 0 0.0 0.0 0.00 0.46 0.46 77 1011.6
20260905020059 66 0 0.0 0.0 0.00 0.46 0.46 79 1011.6
20260905014557 66 0 0.0 0.0 0.00 0.46 0.46 85 1011.5
20260905013104 66 0 0.0 0.0 0.00 0.46 0.46 84 1011.7
20260905011600 68 0 0.0 1.0 0.00 0.46 0.46 80 1011.7
20260905010107 67 0 0.0 0.0 0.00 0.46 0.46 79 1011.7
20260905004558 67 0 0.0 3.0 0.00 0.46 0.46 80 1011.8
20260905003100 66 0 0.0 4.0 0.00 0.46 0.46 84 1011.8
20260905001558 67 65 0.0 1.0 0.00 0.46 0.46 84 1011.7
20260905000059 67 0 0.0 0.0 0.00 0.46 0.46 84 1011.4
20260904234558 68 0 0.0 1.0 0.00 0.46 0.46 84 1011.3
20260904233107 69 0 0.0 3.0 0.00 0.46 0.46 84 1011.1
20260904231608 71 0 0.0 3.0 0.00 0.46 0.46 81 1011.2
20260904230104 72 52 0.0 2.0 0.00 0.46 0.46 76 1011.4
20260904224606 74 0 0.0 0.0 0.00 0.46 0.46 70 1011.3
20260904223103 75 0 0.0 3.0 0.00 0.46 0.46 66 1011.1
20260904221608 76 355 1.0 4.0 0.00 0.46 0.46 64 1011.1
20260904220105 77 0 0.0 5.0 0.00 0.46 0.46 62 1011.0
20260904214600 76 5 2.0 5.0 0.00 0.46 0.46 64 1010.9
20260904213106 77 309 2.0 8.0 0.00 0.46 0.46 62 1010.8
20260904211559 76 28 2.0 5.0 0.00 0.46 0.46 64 1011.1
20260904210104 78 5 3.0 9.0 0.00 0.46 0.46 59 1011.1
20260904204606 78 352 1.0 7.0 0.00 0.46 0.46 58 1011.3
20260904203101 78 16 2.0 8.0 0.00 0.46 0.46 59 1011.3
20260904201616 77 5 4.0 8.0 0.00 0.46 0.46 62 1011.2
20260904200115 78 0 1.0 9.0 0.00 0.46 0.46 61 1011.3
20260904194606 79 333 5.0 11.0 0.00 0.46 0.46 58 1011.2
20260904193101 78 285 3.0 9.0 0.00 0.46 0.46 60 1011.4
20260904191558 78 360 2.0 10.0 0.00 0.46 0.46 60 1011.4
20260904190056 76 319 1.0 5.0 0.00 0.46 0.46 63 1011.6
20260904184616 77 333 2.0 8.0 0.00 0.46 0.46 65 1011.6
20260904183057 77 288 1.0 10.0 0.00 0.46 0.46 62 1012.0
20260904181556 78 323 4.0 10.0 0.00 0.46 0.46 63 1011.9
20260904180105 76 311 7.0 13.0 0.00 0.46 0.46 61 1011.9
20260904174601 76 312 4.0 10.0 0.00 0.46 0.46 66 1011.9
20260904173106 77 22 2.0 12.0 0.00 0.46 0.46 65 1012.1
20260904171555 76 252 3.0 11.0 0.00 0.46 0.46 68 1011.7
20260904170101 75 302 3.0 12.0 0.00 0.46 0.46 66 1011.9
20260904164602 76 342 5.0 13.0 0.00 0.46 0.46 66 1012.0
20260904163104 75 34 5.0 14.0 0.00 0.46 0.46 68 1012.1
20260904161603 74 17 6.0 11.0 0.00 0.46 0.46 71 1012.3
20260904160055 74 0 2.0 12.0 0.00 0.46 0.46 73 1012.3
20260904154554 74 320 5.0 13.0 0.00 0.46 0.46 73 1012.7
20260904153059 73 15 3.0 14.0 0.00 0.46 0.46 76 1012.7
20260904151555 73 334 5.0 11.0 0.00 0.46 0.46 79 1012.8
20260904150054 72 299 5.0 13.0 0.00 0.46 0.46 79 1012.9
20260904144559 72 343 5.0 12.0 0.00 0.46 0.46 80 1013.0
20260904143055 71 317 3.0 11.0 0.00 0.46 0.46 84 1012.9
20260904141600 71 253 3.0 12.0 0.00 0.46 0.46 88 1013.0
20260904140108 70 5 4.0 11.0 0.00 0.46 0.46 92 1012.9
20260904134614 70 352 2.0 10.0 0.00 0.46 0.46 94 1012.6
20260904133059 70 278 1.0 5.0 0.00 0.46 0.46 95 1012.8
20260904131554 70 0 0.0 12.0 0.00 0.46 0.46 96 1012.8
20260904130100 69 360 0.0 7.0 0.00 0.46 0.46 96 1012.7
20260904124613 69 0 0.0 4.0 0.00 0.46 0.46 97 1012.8
20260904123100 69 0 0.0 2.0 0.00 0.46 0.46 96 1012.8
20260904121558 69 0 0.0 3.0 0.00 0.46 0.46 97 1012.5
20260904120100 69 0 0.0 0.0 0.00 0.46 0.46 97 1012.4
20260904114602 69 0 0.0 0.0 0.00 0.46 0.46 96 1012.4
20260904113100 69 0 0.0 0.0 0.00 0.46 0.46 96 1012.4
20260904111601 69 0 0.0 0.0 0.00 0.46 0.46 96 1012.3
20260904104605 69 0 0.0 2.0 0.00 0.46 0.46 96 1012.0
20260904103054 69 0 0.0 0.0 0.00 0.46 0.46 96 1011.8
20260904101601 69 0 0.0 0.0 0.00 0.46 0.46 96 1011.8
20260904094601 69 0 0.0 0.0 0.00 0.47 0.46 96 1011.6
20260904093102 69 0 0.0 0.0 0.00 0.47 0.46 96 1011.5
20260904091604 69 0 0.0 0.0 0.01 0.47 0.46 96 1011.5
20260904090105 69 0 0.0 0.0 0.01 0.47 0.46 96 1011.2
20260904084601 69 0 0.0 0.0 0.01 0.48 0.46 96 1011.1
20260904083149 69 0 0.0 0.0 0.02 0.48 0.46 96 1010.8
20260904081609 69 0 0.0 1.0 0.13 0.47 0.45 96 1010.7
20260904074559 70 0 0.0 0.0 0.41 0.48 0.45 96 1010.7
20260904073104 70 0 0.0 0.0 0.44 0.47 0.44 96 1010.8
20260904071618 70 0 0.0 3.0 0.32 0.35 0.32 96 1011.7
20260904070117 70 0 0.0 0.0 0.20 0.23 0.20 96 1011.6
20260904064603 70 0 0.0 0.0 0.04 0.07 0.04 96 1011.6
20260904063104 70 0 0.0 0.0 0.00 0.03 0.00 96 1011.6
20260904061552 70 0 0.0 0.0 0.00 0.03 0.00 95 1011.4
20260904060057 70 0 0.0 0.0 0.00 0.03 0.00 96 1011.6
20260904054555 70 0 0.0 0.0 0.00 0.11 0.00 95 1011.6
20260904053104 70 0 0.0 0.0 0.00 0.11 0.00 95 1011.7